sat.trackr.live / text

‹ back to catalog

ONEWEB-0217

NORAD 48245 · 2021-031AM

PAYLOAD ACTIVE UNKNOWN

§ Identity

Operator
Country
UK
Launch date
2021-04-25
Launch site
VOSTO
Launch vehicle
Mass (kg)
RCS (m²)

Purposes: comms

External: N2YO · Heavens-Above · Gunter

§ Orbital elements

Epoch: 2026-09-13T01:21:40.343616Z

Period
109.55 min
Inclination
87.8904°
Eccentricity
0.0001712
Mean motion
13.14503286 rev/d
Perigee alt
1,204.5 km
Apogee alt
1,207.1 km
Semi-major
7,583.9 km
B*
6.4044e-5
RAAN
272.1808°
Arg perigee
82.1142°
Mean anomaly
278.0182°
Rev number
25,972

§ Raw data

ONEWEB-02171 48245U 21031AM  26256.05671694  .00000037  00000+0  64044-4 0  99902 48245  87.8904 272.1808 0001712  82.1142 278.0182 13.14503286259724

JSON: /api/v1/satellites/48245 · /tle

For live sub-satellite position, see the globe view (requires WebGL).

§ Visibility from observer

Set your observer location to see the next 7 days of passes ≥ 10°. The values pass through the URL so the page stays shareable.

No JS? Fill the form by hand. The geolocation button needs JavaScript.